TimePST,TemperatureF,Dew PointF,Humidity,Sea Level PressureIn,VisibilityMPH,Wind Direction,Wind SpeedMPH,Gust SpeedMPH,PrecipitationIn,Events,Conditions,WindDirDegrees,DateUTC
12:15 AM,37.4,5.0,26,30.28,10.0,North,8.1,-,N/A,,Unknown,350,2013-01-04 08:15:00
12:35 AM,37.4,5.0,26,30.29,10.0,Calm,Calm,-,N/A,,Unknown,0,2013-01-04 08:35:00
12:55 AM,35.6,6.8,30,30.29,10.0,Calm,Calm,-,N/A,,Unknown,0,2013-01-04 08:55:00
1:15 AM,39.2,3.2,22,30.29,10.0,NNW,5.8,-,N/A,,Unknown,330,2013-01-04 09:15:00
4:15 AM,35.6,5.0,28,30.30,10.0,North,8.1,-,N/A,,Unknown,350,2013-01-04 12:15:00
4:35 AM,35.6,6.8,30,30.30,10.0,NNW,8.1,-,N/A,,Unknown,330,2013-01-04 12:35:00
4:55 AM,32.0,6.8,35,30.30,10.0,Calm,Calm,-,N/A,,Unknown,0,2013-01-04 12:55:00
5:15 AM,32.0,6.8,35,30.31,10.0,Calm,Calm,-,N/A,,Unknown,0,2013-01-04 13:15:00
5:35 AM,30.2,6.8,37,30.31,10.0,Calm,Calm,-,N/A,,Unknown,0,2013-01-04 13:35:00
5:55 AM,28.4,8.6,43,30.31,10.0,Calm,Calm,-,N/A,,Unknown,0,2013-01-04 13:55:00
6:15 AM,30.2,8.6,40,30.32,10.0,Calm,Calm,-,N/A,,Unknown,0,2013-01-04 14:15:00
6:35 AM,28.4,10.4,47,30.32,10.0,Calm,Calm,-,N/A,,Unknown,0,2013-01-04 14:35:00
6:55 AM,28.4,8.6,43,30.32,10.0,Calm,Calm,-,N/A,,Unknown,0,2013-01-04 14:55:00
7:15 AM,28.4,10.4,47,30.33,10.0,Calm,Calm,-,N/A,,Unknown,0,2013-01-04 15:15:00
7:35 AM,35.6,6.8,30,30.34,10.0,NW,5.8,-,N/A,,Unknown,310,2013-01-04 15:35:00
7:55 AM,37.4,6.8,28,30.34,10.0,Calm,Calm,-,N/A,,Unknown,0,2013-01-04 15:55:00
8:15 AM,35.6,10.4,35,30.35,10.0,Calm,Calm,-,N/A,,Unknown,0,2013-01-04 16:15:00
8:35 AM,35.6,10.4,35,30.35,10.0,Calm,Calm,-,N/A,,Unknown,0,2013-01-04 16:35:00
8:55 AM,35.6,8.6,33,30.36,10.0,Calm,Calm,-,N/A,,Unknown,0,2013-01-04 16:55:00
9:15 AM,37.4,10.4,33,30.36,10.0,Calm,Calm,-,N/A,,Unknown,0,2013-01-04 17:15:00
9:35 AM,39.2,8.6,28,30.36,10.0,Calm,Calm,-,N/A,,Unknown,0,2013-01-04 17:35:00
9:55 AM,41.0,8.6,26,30.36,10.0,Calm,Calm,-,N/A,,Unknown,0,2013-01-04 17:55:00
10:15 AM,42.8,6.8,23,30.36,10.0,Calm,Calm,-,N/A,,Unknown,0,2013-01-04 18:15:00
10:35 AM,44.6,6.8,21,30.35,10.0,Calm,Calm,-,N/A,,Unknown,0,2013-01-04 18:35:00
10:55 AM,44.6,6.8,21,30.34,10.0,Calm,Calm,-,N/A,,Unknown,0,2013-01-04 18:55:00
11:15 AM,44.6,6.8,21,30.33,10.0,NNE,3.5,-,N/A,,Unknown,30,2013-01-04 19:15:00
11:35 AM,46.4,6.8,20,30.32,10.0,Calm,Calm,-,N/A,,Unknown,0,2013-01-04 19:35:00
11:55 AM,46.4,6.8,20,30.30,10.0,Calm,Calm,-,N/A,,Unknown,0,2013-01-04 19:55:00
12:15 PM,46.4,8.6,22,30.28,10.0,Calm,Calm,-,N/A,,Unknown,0,2013-01-04 20:15:00
12:35 PM,46.4,6.8,20,30.27,10.0,Calm,Calm,-,N/A,,Unknown,0,2013-01-04 20:35:00
12:55 PM,48.2,8.6,20,30.27,10.0,Calm,Calm,-,N/A,,Unknown,0,2013-01-04 20:55:00
1:15 PM,48.2,8.6,20,30.26,10.0,Calm,Calm,-,N/A,,Unknown,0,2013-01-04 21:15:00
1:35 PM,48.2,8.6,20,30.26,10.0,Calm,Calm,-,N/A,,Unknown,0,2013-01-04 21:35:00
1:55 PM,48.2,8.6,20,30.26,10.0,NE,4.6,-,N/A,,Unknown,40,2013-01-04 21:55:00
2:15 PM,50.0,8.6,19,30.26,10.0,NE,3.5,-,N/A,,Unknown,40,2013-01-04 22:15:00
2:35 PM,50.0,6.8,17,30.26,10.0,Calm,Calm,-,N/A,,Unknown,0,2013-01-04 22:35:00
2:55 PM,50.0,6.8,17,30.26,10.0,NE,3.5,-,N/A,,Unknown,40,2013-01-04 22:55:00
3:15 PM,50.0,6.8,17,30.26,10.0,NE,3.5,-,N/A,,Unknown,40,2013-01-04 23:15:00
3:35 PM,48.2,8.6,20,30.25,10.0,NNE,4.6,-,N/A,,Unknown,30,2013-01-04 23:35:00
3:55 PM,48.2,8.6,20,30.25,10.0,NNE,5.8,-,N/A,,Unknown,30,2013-01-04 23:55:00
4:15 PM,46.4,8.6,22,30.25,10.0,NNE,5.8,-,N/A,,Unknown,30,2013-01-05 00:15:00
4:35 PM,44.6,10.4,25,30.25,10.0,NNE,4.6,-,N/A,,Unknown,20,2013-01-05 00:35:00
4:55 PM,41.0,10.4,29,30.25,10.0,North,4.6,-,N/A,,Unknown,10,2013-01-05 00:55:00
5:15 PM,39.2,12.2,33,30.25,10.0,Calm,Calm,-,N/A,,Unknown,0,2013-01-05 01:15:00
5:35 PM,37.4,14.0,38,30.26,10.0,North,3.5,-,N/A,,Unknown,10,2013-01-05 01:35:00
5:55 PM,37.4,12.2,36,30.26,10.0,Calm,Calm,-,N/A,,Unknown,0,2013-01-05 01:55:00
6:15 PM,37.4,10.4,33,30.26,10.0,Calm,Calm,-,N/A,,Unknown,0,2013-01-05 02:15:00
6:35 PM,35.6,10.4,35,30.27,10.0,Calm,Calm,-,N/A,,Unknown,0,2013-01-05 02:35:00
7:15 PM,35.6,12.2,38,30.27,10.0,Calm,Calm,-,N/A,,Unknown,0,2013-01-05 03:15:00
7:35 PM,35.6,8.6,33,30.27,10.0,Calm,Calm,-,N/A,,Unknown,0,2013-01-05 03:35:00
7:55 PM,35.6,8.6,33,30.27,10.0,Calm,Calm,-,N/A,,Unknown,0,2013-01-05 03:55:00
8:15 PM,37.4,8.6,30,30.27,10.0,Calm,Calm,-,N/A,,Unknown,0,2013-01-05 04:15:00
8:35 PM,32.0,10.4,41,30.28,10.0,Calm,Calm,-,N/A,,Unknown,0,2013-01-05 04:35:00
8:55 PM,32.0,14.0,48,30.28,10.0,Calm,Calm,-,N/A,,Unknown,0,2013-01-05 04:55:00
9:15 PM,32.0,12.2,44,30.29,10.0,Calm,Calm,-,N/A,,Unknown,0,2013-01-05 05:15:00
9:35 PM,30.2,12.2,47,30.29,10.0,Calm,Calm,-,N/A,,Unknown,0,2013-01-05 05:35:00
9:55 PM,32.0,12.2,44,30.29,10.0,Calm,Calm,-,N/A,,Unknown,0,2013-01-05 05:55:00
10:15 PM,32.0,14.0,48,30.29,10.0,Calm,Calm,-,N/A,,Unknown,0,2013-01-05 06:15:00
10:35 PM,32.0,14.0,48,30.29,10.0,Calm,Calm,-,N/A,,Unknown,0,2013-01-05 06:35:00
10:55 PM,30.2,12.2,47,30.30,10.0,Calm,Calm,-,N/A,,Unknown,0,2013-01-05 06:55:00
11:15 PM,32.0,10.4,41,30.30,10.0,Calm,Calm,-,N/A,,Unknown,0,2013-01-05 07:15:00
11:35 PM,32.0,14.0,48,30.29,10.0,Calm,Calm,-,N/A,,Unknown,0,2013-01-05 07:35:00
11:55 PM,30.2,10.4,44,30.29,10.0,Calm,Calm,-,N/A,,Unknown,0,2013-01-05 07:55:00